Dallas, TX

8:44 AM CST on February 23, 2017 (GMT -0600)
Dallas Love

Weather History for KDAL - November, 2011

Change the Weather History Date:

Monday, November 14, 2011

  Actual Average Record
Temperature  
Mean Temperature 76 °F -  
Max Temperature 81 °F 64 °F 84 °F (1999)
Min Temperature 70 °F 48 °F 28 °F (2014)
Cooling Degree Days 11    
Growing Degree Days 26 (Base 50)    
Moisture  
Dew Point 64 °F    
Average Humidity 70    
Maximum Humidity 87    
Minimum Humidity 50    
Precipitation  
Precipitation 0.02 in - - ()
Sea Level Pressure  
Sea Level Pressure 29.78 in    
Wind  
Wind Speed 11 mph (SSW)    
Max Wind Speed 15 mph    
Max Gust Speed 25 mph    
Visibility 10 miles    
Events Rain    
Averages and records for this station are not official NWS values.
T = Trace of Precipitation, MM = Missing Value Source: NWS Daily Summary

Daily Weather History Graph

Daily Weather History Graph

Search for Another Location

Airport or City:

Trip Planner

Search our weather history database for the weather conditions in past years. The results will help you decide how hot, cold, wet, or windy it might be!

Date:

Astronomy

Nov. 14, 2011 Rise Set
Actual Time 6:56 AM CST 5:26 PM CST
Civil Twilight 6:30 AM CST 5:52 PM CST
Nautical Twilight 6:00 AM CST 6:22 PM CST
Astronomical Twilight 5:31 AM CST 6:51 PM CST
Moon 8:38 PM CST (11/14) 10:11 AM CST (11/14)
Length of Visible Light 11h 22m
Length of Day
10h 30m
Waning Gibbous, 86% of the Moon is Illuminated
Nov 14
Waning Gibbous
Nov 18
Last Quarter
Nov 25
New
Dec 2
First Quarter
Dec 10
Full

Hourly Weather History & Observations

Time (CST) Temp. Heat Index Dew Point Humidity Pressure Visibility Wind Dir Wind Speed Gust Speed Precip Events Conditions
12:53 AM 73.0 °F - 63.0 °F 71% 29.78 in 10.0 mi South 15.0 mph 21.9 mph N/A   Mostly Cloudy
1:53 AM 73.0 °F - 64.9 °F 76% 29.79 in 10.0 mi South 12.7 mph 21.9 mph N/A   Mostly Cloudy
2:53 AM 71.1 °F - 64.9 °F 81% 29.79 in 10.0 mi South 11.5 mph 18.4 mph N/A   Mostly Cloudy
3:29 AM 71.6 °F - 64.4 °F 78% 29.81 in 10.0 mi South 11.5 mph - N/A   Mostly Cloudy
3:53 AM 71.1 °F - 64.9 °F 81% 29.78 in 10.0 mi SSW 11.5 mph 19.6 mph N/A   Mostly Cloudy
4:53 AM 72.0 °F - 64.9 °F 78% 29.79 in 10.0 mi SSW 12.7 mph 23.0 mph N/A   Overcast
5:41 AM 71.6 °F - 64.4 °F 78% 29.81 in 10.0 mi SSW 10.4 mph 20.7 mph N/A   Scattered Clouds
5:53 AM 71.1 °F - 64.9 °F 81% 29.80 in 10.0 mi SSW 9.2 mph - N/A   Mostly Cloudy
6:53 AM 71.1 °F - 64.9 °F 81% 29.81 in 10.0 mi South 10.4 mph - N/A   Mostly Cloudy
7:53 AM 71.1 °F - 64.0 °F 78% 29.82 in 10.0 mi SSW 9.2 mph - N/A   Mostly Cloudy
8:53 AM 73.0 °F - 64.0 °F 73% 29.84 in 10.0 mi SSW 10.4 mph 19.6 mph N/A   Mostly Cloudy
9:30 AM 73.4 °F - 64.4 °F 73% 29.87 in 10.0 mi SW 15.0 mph 24.2 mph N/A   Mostly Cloudy
9:53 AM 73.9 °F - 64.9 °F 73% 29.85 in 10.0 mi SSW 13.8 mph 25.3 mph N/A   Mostly Cloudy
10:53 AM 75.9 °F - 64.0 °F 67% 29.84 in 10.0 mi SW 13.8 mph 20.7 mph N/A   Mostly Cloudy
11:37 AM 77.0 °F - 64.4 °F 65% 29.84 in 10.0 mi SSW 12.7 mph 19.6 mph N/A   Mostly Cloudy
11:53 AM 79.0 °F - 64.0 °F 60% 29.82 in 10.0 mi SSW 9.2 mph 18.4 mph N/A   Mostly Cloudy
12:53 PM 79.0 °F - 63.0 °F 58% 29.78 in 10.0 mi SSW 10.4 mph - N/A   Mostly Cloudy
1:53 PM 80.1 °F 81.2 °F 62.1 °F 54% 29.76 in 10.0 mi SW 10.4 mph - N/A   Mostly Cloudy
2:53 PM 81.0 °F 81.7 °F 61.0 °F 50% 29.73 in 10.0 mi SW 10.4 mph 17.3 mph N/A   Mostly Cloudy
3:53 PM 81.0 °F 81.9 °F 62.1 °F 52% 29.73 in 10.0 mi SW 6.9 mph - N/A   Mostly Cloudy
4:53 PM 80.1 °F 81.2 °F 62.1 °F 54% 29.72 in 7.0 mi SW 4.6 mph - N/A   Mostly Cloudy
5:53 PM 79.0 °F - 63.0 °F 58% 29.73 in 7.0 mi Calm Calm - N/A   Overcast
6:53 PM 73.4 °F - 62.6 °F 69% 29.75 in 10.0 mi SSE 3.5 mph - N/A   Overcast
7:53 PM 75.0 °F - 62.1 °F 64% 29.74 in 10.0 mi South 6.9 mph - N/A   Overcast
8:53 PM 73.4 °F - 62.6 °F 69% 29.75 in 10.0 mi South 4.6 mph - N/A   Overcast
9:53 PM 71.1 °F - 62.1 °F 73% 29.73 in 10.0 mi SE 4.6 mph - N/A   Overcast
10:53 PM 73.0 °F - 62.1 °F 68% 29.74 in 10.0 mi SSW 5.8 mph - 0.00 in Rain Light Rain
11:53 PM 70.0 °F - 66.0 °F 87% 29.75 in 8.0 mi SSW 5.8 mph - 0.02 in   Overcast